STARLINK-30090, 56293

Orbit data source: Space-Track

STARLINK-30090, 56293 is a payload satellite owned by SpaceX/Seattle (US) in LEO that was launched on Wed, 19 Apr 2023 UTC via an FALCON 9 launch vehicle from the Air Force Eastern Test Range (AFETR). Payload-class satellites include a variety of spacecraft equipped with specific instruments for various scientific and technological missions. These include communications satellites like Starlink; space stations such as the ISS; scientific satellites like the Hubble; Earth observation satellites from companies like Planet Labs, Umbra, and HawkEye 360; GPS; miniature CubeSats for education and research; and military/defense satellites.

Loading next visibility...
Identifier
56293, 2023-056H
Orbit
LEO
Country
Flag of USUS
Related business
Manufacturer
SpaceX/Seattle
Mission
Operational Commercial Communications
Bus & Motor
STARLINK V2M, Unknown motor
Mass
730 kg wet, ~700 kg dry
Launch date (UTC)
2023-04-19 (3 years ago)
Launch vehicle
FALCON 9
Launch site
Air Force Eastern Test Range (AFETR)
Object type
Payload
Rocket body
Debris
Shape & HBR
Box + 2 Pan, 17.7 m
Radar Cross Section
33.884 m², Large (>1 m²)

Expand to show TLE details & history
Last TLE update: 1 day ago

TLE from 1 day ago
0 STARLINK-30090
1 56293U 23056H   25348.62957627  .00001460  00000-0  12314-3 0  9992
2 56293  43.0010 312.8874 0001157 262.4916  97.5795 15.02529923147228
Epoch: 2025-12-14T15:06Z
TLE epoch observation values (Epoch: 2025-12-14T15:06:35.389Z)
Latitude
-0.00002°
Longitude
2.70018°
Altitude
558.982 km
Speed
7.584 km/s
True Right ascension
20h 51m 32s
True Declination
0° 00' 00"
Sunlit
Object was in daylight at epoch
Visualization orbit readout
Latitude
Unknown
Longitude
Unknown
Altitude
Unknown
Speed
Unknown
Apparent Right ascension
Unknown
Apparent Declination
Unknown
Sunlit
N/A
Visualization observer readout
Local Sidereal Time
13:23:54
Azimuth
Unknown
Elevation
Unknown
Doppler factor
Unknown
Orbital elements
Apogee altitude
561.825 km
Perigee altitude
560.219 km
Semi-major axis
6,939.159 km
Eccentricity
0.00012
Inclination
43.001°
RAAN
312.8874°
Arg. of periapsis
262.4916°
True anomaly
97.59264°
Mean anomaly
97.5795°
Eccentric anomaly
97.58607°
Mean motion
3.75477 °/min
Orbital period
95.88 mins
BSTAR
0.00012314
Loading maneuver chart data...
Computing Atmospheric mass density...
Loading historical data...
Loading historical data...
Loading historical data...
Loading historical data...
Loading historical data...
Loading historical data...
Loading historical data...

Documentation

Showing up to 5 results
|